This is the latest recevied weather packets stored in our database for station/object PY2UTU-WX. If no packets are shown the sender has not sent any weather packets the latest 10 day(s).
| Time | Temp. | Humidity | Pressure | Rain* | Wind** | Luminosity | Snow |
|---|---|---|---|---|---|---|---|
| 1777849044 | 16.11° C | 98% | 927.9 hPa | - | - | - | - |
| 1777848144 | 16.67° C | 98% | 927.7 hPa | - | - | - | - |
| 1777847244 | 16.67° C | 98% | 927.6 hPa | - | - | - | - |
| 1777846344 | 16.67° C | 98% | 927.6 hPa | - | - | - | - |
| 1777845444 | 16.67° C | 98% | 927.3 hPa | - | - | - | - |
| 1777844544 | 16.67° C | 98% | 927.2 hPa | - | - | - | - |
| 1777843644 | 16.11° C | 98% | 927.4 hPa | - | - | - | - |
| 1777842744 | 16.11° C | 98% | 927.2 hPa | - | - | - | - |
| 1777841844 | 17.22° C | 98% | 927.2 hPa | - | - | - | - |
| 1777840944 | 17.22° C | 98% | 927.2 hPa | - | - | - | - |
| 1777840044 | 17.78° C | 98% | 927.2 hPa | - | - | - | - |
| 1777839144 | 17.22° C | 98% | 927.1 hPa | - | - | - | - |
| 1777838244 | 17.78° C | 98% | 927.1 hPa | - | - | - | - |
| 1777837344 | 17.22° C | 98% | 927 hPa | - | - | - | - |
| 1777836444 | 16.67° C | 98% | 927 hPa | - | - | - | - |
| 1777835544 | 17.78° C | 98% | 927 hPa | - | - | - | - |
| 1777834644 | 18.33° C | 98% | 926.8 hPa | - | - | - | - |
| 1777833744 | 18.33° C | 98% | 926.7 hPa | - | - | - | - |
| 1777832844 | 17.78° C | 98% | 926.7 hPa | - | - | - | - |
| 1777831944 | 18.89° C | 98% | 926.8 hPa | - | - | - | - |
| 1777831044 | 18.89° C | 98% | 926.7 hPa | - | - | - | - |
| 1777830144 | 18.89° C | 98% | 926.8 hPa | - | - | - | - |
| 1777829244 | 18.89° C | 98% | 926.9 hPa | - | - | - | - |
| 1777828344 | 18.89° C | 98% | 927 hPa | - | - | - | - |
| 1777827444 | 18.89° C | 98% | 927.2 hPa | - | - | - | - |
* Rain since midnight (hover to see other rain measurements)
** Current wind speed in m/s (hover to see current wind gust speed)